| time (UTC) | temp F | wind direction | speed MPH | gust MPH | rain 1hr in | rain 24hr in | rain mn in | humidity % | barometer mb |
| 20260508060032 | 40 | 0 | 0.0 | 5.0 | 0.00 | 0.01 | 0.00 | 66 | 1005.0 |
| 20260508054534 | 41 | 0 | 0.0 | 5.0 | 0.00 | 0.16 | 0.00 | 65 | 1005.2 |
| 20260508053033 | 40 | 299 | 0.0 | 6.0 | 0.00 | 0.16 | 0.00 | 66 | 1005.2 |
| 20260508051529 | 41 | 0 | 0.0 | 2.0 | 0.00 | 0.16 | 0.00 | 64 | 1005.3 |
| 20260508050030 | 42 | 0 | 0.0 | 2.0 | 0.00 | 0.16 | 0.00 | 61 | 1005.4 |
| 20260508044528 | 42 | 0 | 0.0 | 2.0 | 0.00 | 0.18 | 0.00 | 60 | 1005.4 |
| 20260508043029 | 42 | 0 | 0.0 | 1.0 | 0.00 | 0.18 | 0.00 | 60 | 1005.5 |
| 20260508041534 | 41 | 0 | 0.0 | 4.0 | 0.00 | 0.18 | 0.00 | 63 | 1005.4 |
| 20260508040029 | 42 | 0 | 0.0 | 0.0 | 0.00 | 0.18 | 0.00 | 58 | 1005.6 |
| 20260508034540 | 43 | 0 | 0.0 | 2.0 | 0.00 | 0.19 | 0.18 | 57 | 1005.9 |
| 20260508033030 | 44 | 0 | 0.0 | 0.0 | 0.00 | 0.19 | 0.18 | 55 | 1005.9 |
| 20260508031534 | 44 | 0 | 0.0 | 3.0 | 0.00 | 0.19 | 0.18 | 54 | 1005.9 |
| 20260508030030 | 45 | 311 | 0.0 | 8.0 | 0.00 | 0.19 | 0.18 | 53 | 1005.6 |
| 20260508024552 | 45 | 0 | 1.0 | 10.0 | 0.00 | 0.20 | 0.18 | 53 | 1005.6 |
| 20260508023030 | 45 | 0 | 0.0 | 3.0 | 0.00 | 0.20 | 0.18 | 53 | 1005.6 |
| 20260508021528 | 46 | 0 | 1.0 | 9.0 | 0.00 | 0.20 | 0.18 | 52 | 1005.3 |
| 20260508020027 | 46 | 0 | 2.0 | 8.0 | 0.00 | 0.20 | 0.18 | 52 | 1005.4 |
| 20260508014527 | 46 | 294 | 3.0 | 8.0 | 0.00 | 0.23 | 0.18 | 52 | 1005.4 |
| 20260508013033 | 47 | 302 | 2.0 | 10.0 | 0.00 | 0.23 | 0.18 | 53 | 1005.3 |
| 20260508011532 | 47 | 0 | 2.0 | 8.0 | 0.00 | 0.23 | 0.18 | 52 | 1005.3 |
| 20260508010028 | 48 | 0 | 0.0 | 7.0 | 0.00 | 0.23 | 0.18 | 50 | 1005.3 |
| 20260508004541 | 49 | 277 | 2.0 | 12.0 | 0.00 | 0.23 | 0.18 | 49 | 1005.0 |
| 20260508003029 | 50 | 303 | 2.0 | 10.0 | 0.00 | 0.23 | 0.18 | 47 | 1004.9 |
| 20260508001538 | 50 | 313 | 1.0 | 10.0 | 0.00 | 0.23 | 0.18 | 47 | 1004.7 |
| 20260508000027 | 51 | 0 | 2.0 | 9.0 | 0.00 | 0.23 | 0.18 | 47 | 1004.5 |
| 20260507234531 | 52 | 0 | 4.0 | 13.0 | 0.00 | 0.27 | 0.18 | 45 | 1004.3 |
| 20260507233029 | 53 | 285 | 2.0 | 12.0 | 0.00 | 0.27 | 0.18 | 45 | 1003.9 |
| 20260507231528 | 55 | 0 | 3.0 | 15.0 | 0.00 | 0.27 | 0.18 | 44 | 1003.7 |
| 20260507230030 | 56 | 292 | 6.0 | 16.0 | 0.00 | 0.27 | 0.18 | 42 | 1003.2 |
| 20260507224528 | 58 | 295 | 4.0 | 11.0 | 0.00 | 0.50 | 0.18 | 36 | 1002.8 |
| 20260507223030 | 59 | 269 | 3.0 | 11.0 | 0.00 | 0.50 | 0.18 | 36 | 1002.6 |
| 20260507221536 | 60 | 297 | 4.0 | 12.0 | 0.00 | 0.50 | 0.18 | 37 | 1002.4 |
| 20260507220031 | 59 | 291 | 4.0 | 11.0 | 0.00 | 0.50 | 0.18 | 40 | 1002.2 |
| 20260507214528 | 61 | 252 | 3.0 | 13.0 | 0.00 | 0.63 | 0.18 | 40 | 1002.3 |
| 20260507213031 | 61 | 293 | 1.0 | 13.0 | 0.00 | 0.63 | 0.18 | 43 | 1002.3 |
| 20260507211528 | 60 | 246 | 4.0 | 15.0 | 0.00 | 0.63 | 0.18 | 43 | 1002.4 |
| 20260507210028 | 60 | 296 | 1.0 | 12.0 | 0.00 | 0.63 | 0.18 | 51 | 1002.3 |
| 20260507204528 | 60 | 248 | 4.0 | 11.0 | 0.00 | 0.73 | 0.18 | 51 | 1002.1 |
| 20260507203042 | 60 | 271 | 4.0 | 12.0 | 0.00 | 0.73 | 0.18 | 49 | 1002.0 |
| 20260507201530 | 61 | 281 | 4.0 | 10.0 | 0.00 | 0.73 | 0.18 | 49 | 1001.8 |
| 20260507200030 | 60 | 301 | 3.0 | 10.0 | 0.00 | 0.73 | 0.18 | 49 | 1001.8 |
| 20260507194530 | 60 | 0 | 0.0 | 6.0 | 0.00 | 0.74 | 0.18 | 47 | 1001.9 |
| 20260507193028 | 62 | 0 | 1.0 | 6.0 | 0.00 | 0.74 | 0.18 | 45 | 1002.0 |
| 20260507191535 | 61 | 0 | 0.0 | 7.0 | 0.00 | 0.74 | 0.18 | 51 | 1002.0 |
| 20260507190030 | 60 | 0 | 2.0 | 8.0 | 0.00 | 0.74 | 0.18 | 47 | 1002.2 |
| 20260507184530 | 63 | 321 | 0.0 | 10.0 | 0.00 | 0.74 | 0.18 | 50 | 1002.3 |
| 20260507183030 | 60 | 0 | 0.0 | 8.0 | 0.00 | 0.74 | 0.18 | 55 | 1002.4 |
| 20260507181530 | 60 | 259 | 1.0 | 6.0 | 0.00 | 0.74 | 0.18 | 53 | 1002.6 |
| 20260507180028 | 59 | 0 | 0.0 | 8.0 | 0.00 | 0.74 | 0.18 | 50 | 1002.7 |
| 20260507174538 | 60 | 309 | 0.0 | 7.0 | 0.00 | 0.74 | 0.18 | 51 | 1002.7 |
| 20260507173052 | 62 | 300 | 3.0 | 9.0 | 0.00 | 0.74 | 0.18 | 47 | 1002.8 |
| 20260507171529 | 61 | 0 | 0.0 | 4.0 | 0.00 | 0.74 | 0.18 | 51 | 1002.7 |
| 20260507170032 | 60 | 0 | 2.0 | 8.0 | 0.00 | 0.74 | 0.18 | 50 | 1002.9 |
| 20260507164532 | 60 | 275 | 3.0 | 8.0 | 0.00 | 0.74 | 0.18 | 54 | 1003.1 |
| 20260507163028 | 58 | 290 | 0.0 | 5.0 | 0.00 | 0.74 | 0.18 | 60 | 1003.3 |
| 20260507161540 | 58 | 0 | 0.0 | 5.0 | 0.00 | 0.74 | 0.18 | 55 | 1003.6 |
| 20260507160028 | 59 | 0 | 0.0 | 1.0 | 0.00 | 0.74 | 0.18 | 59 | 1003.6 |
| 20260507154528 | 58 | 0 | 0.0 | 5.0 | 0.00 | 0.74 | 0.18 | 61 | 1003.6 |
| 20260507153027 | 57 | 0 | 0.0 | 5.0 | 0.00 | 0.74 | 0.18 | 65 | 1003.7 |
| 20260507151530 | 56 | 0 | 1.0 | 7.0 | 0.00 | 0.74 | 0.18 | 64 | 1003.8 |
| 20260507150037 | 55 | 0 | 0.0 | 2.0 | 0.00 | 0.74 | 0.18 | 66 | 1004.0 |
| 20260507144527 | 56 | 0 | 0.0 | 6.0 | 0.00 | 0.74 | 0.18 | 68 | 1004.1 |
| 20260507143033 | 55 | 0 | 0.0 | 5.0 | 0.00 | 0.74 | 0.18 | 70 | 1004.3 |
| 20260507141545 | 53 | 0 | 0.0 | 4.0 | 0.00 | 0.74 | 0.18 | 71 | 1004.5 |
| 20260507140028 | 53 | 0 | 0.0 | 2.0 | 0.00 | 0.74 | 0.18 | 74 | 1004.7 |
| 20260507134528 | 52 | 0 | 0.0 | 8.0 | 0.00 | 0.74 | 0.18 | 73 | 1004.6 |
| 20260507133043 | 51 | 0 | 0.0 | 4.0 | 0.00 | 0.74 | 0.18 | 75 | 1004.6 |
| 20260507131530 | 51 | 0 | 0.0 | 5.0 | 0.00 | 0.74 | 0.18 | 77 | 1004.9 |
| 20260507130031 | 50 | 0 | 0.0 | 6.0 | 0.00 | 0.74 | 0.18 | 82 | 1004.8 |
| 20260507124530 | 50 | 0 | 0.0 | 4.0 | 0.00 | 0.74 | 0.18 | 85 | 1004.9 |
| 20260507123037 | 48 | 0 | 0.0 | 6.0 | 0.00 | 0.74 | 0.18 | 90 | 1004.9 |
| 20260507121528 | 47 | 0 | 0.0 | 0.0 | 0.00 | 0.74 | 0.18 | 94 | 1004.6 |
| 20260507120034 | 46 | 0 | 0.0 | 0.0 | 0.00 | 0.74 | 0.18 | 96 | 1004.9 |
| 20260507114530 | 46 | 0 | 0.0 | 1.0 | 0.00 | 0.74 | 0.18 | 97 | 1005.2 |
| 20260507113034 | 45 | 0 | 0.0 | 1.0 | 0.00 | 0.74 | 0.18 | 97 | 1004.9 |
| 20260507111531 | 45 | 0 | 0.0 | 0.0 | 0.00 | 0.74 | 0.18 | 97 | 1005.9 |
| 20260507110037 | 45 | 0 | 0.0 | 0.0 | 0.00 | 0.74 | 0.18 | 97 | 1006.1 |
| 20260507104530 | 44 | 0 | 0.0 | 0.0 | 0.00 | 0.74 | 0.18 | 97 | 1005.3 |
| 20260507103030 | 43 | 0 | 0.0 | 0.0 | 0.00 | 0.74 | 0.18 | 97 | 1005.3 |
| 20260507101534 | 43 | 0 | 0.0 | 0.0 | 0.00 | 0.74 | 0.18 | 97 | 1004.4 |
| 20260507100032 | 43 | 0 | 0.0 | 0.0 | 0.00 | 0.74 | 0.18 | 97 | 1004.4 |
| 20260507094535 | 43 | 0 | 0.0 | 3.0 | 0.00 | 0.74 | 0.18 | 97 | 1004.5 |
| 20260507093030 | 44 | 0 | 0.0 | 3.0 | 0.00 | 0.74 | 0.18 | 97 | 1004.6 |
| 20260507091533 | 44 | 0 | 0.0 | 3.0 | 0.00 | 0.74 | 0.18 | 97 | 1004.6 |
| 20260507090029 | 44 | 0 | 0.0 | 4.0 | 0.00 | 0.74 | 0.18 | 98 | 1004.7 |
| 20260507084531 | 44 | 0 | 0.0 | 3.0 | 0.00 | 0.74 | 0.18 | 98 | 1004.3 |
| 20260507083030 | 45 | 0 | 1.0 | 10.0 | 0.00 | 0.74 | 0.18 | 98 | 1004.4 |
| 20260507081537 | 45 | 0 | 0.0 | 5.0 | 0.00 | 0.74 | 0.18 | 98 | 1004.3 |
| 20260507080028 | 46 | 0 | 0.0 | 1.0 | 0.00 | 0.74 | 0.18 | 99 | 1004.2 |
| 20260507074528 | 46 | 0 | 0.0 | 4.0 | 0.00 | 0.74 | 0.18 | 98 | 1004.3 |
| 20260507073031 | 46 | 0 | 0.0 | 3.0 | 0.00 | 0.74 | 0.18 | 99 | 1004.2 |
| 20260507071530 | 46 | 0 | 0.0 | 3.0 | 0.01 | 0.74 | 0.18 | 99 | 1003.7 |
| 20260507070041 | 47 | 0 | 0.0 | 0.0 | 0.01 | 0.74 | 0.18 | 99 | 1003.8 |
| 20260507064530 | 47 | 0 | 0.0 | 4.0 | 0.01 | 0.74 | 0.18 | 99 | 1003.9 |
| 20260507063028 | 47 | 0 | 0.0 | 7.0 | 0.04 | 0.74 | 0.18 | 99 | 1003.5 |
| 20260507061528 | 47 | 0 | 0.0 | 2.0 | 0.08 | 0.73 | 0.17 | 99 | 1003.4 |